Back to catalog

TAIJING-4 02A

AliveScienceSSO
NORAD 64087·PAYLOAD·🇨🇳 China
This satellite name has not been confirmed by official sources yet.

Launched May 21, 2025 from Jiuquan Satellite Launch Center

Loading…

Next Passes (next 24 hours)

TLE

FreshSource: Space-Track

Epoch: Sep 14, 2026, 14:52 UTC

1 64087U 25108A   26257.62003118  .00003982  00000-0  20538-3 0  9997
2 64087  97.4696 331.0457 0002785  25.1416 334.9952 15.16920161 72873

Track TAIJING-4 02A in real time with AllMySat

Download on the App Store